Weather History for KFDR - September, 2012

Change the Weather History Date:

Wednesday, September 5, 2012

  Actual Average (KLTS) Record (KLTS)
Temperature  
Mean Temperature 88 °F -  
Max Temperature 104 °F 89 °F 107 °F (1998)
Min Temperature 73 °F 65 °F 55 °F (2010)
Cooling Degree Days 24    
Growing Degree Days 38 (Base 50)    
Moisture  
Dew Point 63 °F    
Average Humidity 46    
Maximum Humidity 85    
Minimum Humidity 24    
Precipitation  
Precipitation 0.00 in - - ()
Sea Level Pressure  
Sea Level Pressure 29.79 in    
Wind  
Wind Speed 10 mph (East)    
Max Wind Speed 25 mph    
Max Gust Speed 38 mph    
Visibility 10 miles    
Events Rain , Thunderstorm    
Averages and records for this station are not official NWS values.
T = Trace of Precipitation, MM = Missing Value Source: NWS Daily Summary

Daily Weather History Graph

Daily Weather History Graph

Search for Another Location

Airport or City:

Trip Planner

Search our weather history database for the weather conditions in past years. The results will help you decide how hot, cold, wet, or windy it might be!

Date:

Astronomy

Sep. 05, 2012 Rise Set
Actual Time 7:12 AM CDT 7:55 PM CDT
Civil Twilight 6:46 AM CDT 8:21 PM CDT
Nautical Twilight 6:16 AM CDT 8:51 PM CDT
Astronomical Twilight 5:46 AM CDT 9:21 PM CDT
Moon 10:43 PM CDT (9/5) 12:01 PM CDT (9/5)
Length of Visible Light 13h 34m
Length of Day
12h 43m
Waning Gibbous, 76% of the Moon is Illuminated
Sep 5
Waning Gibbous
Sep 8
Last Quarter
Sep 15
New
Sep 22
First Quarter
Sep 29
Full

Hourly Weather History & Observations

Time (CDT) Temp. Heat Index Dew Point Humidity Pressure Visibility Wind Dir Wind Speed Gust Speed Precip Events Conditions
12:53 AM 82.9 °F 83.3 °F 61.0 °F 47% 29.75 in 10.0 mi SSE 6.9 mph - N/A   Clear
1:53 AM 81.0 °F 81.7 °F 61.0 °F 50% 29.77 in 10.0 mi WSW 3.5 mph - N/A   Clear
2:53 AM 84.0 °F 84.9 °F 63.0 °F 49% 29.81 in 10.0 mi North 23.0 mph 33.4 mph N/A   Mostly Cloudy
3:53 AM 81.0 °F 82.5 °F 64.0 °F 56% 29.79 in 10.0 mi NNE 11.5 mph - N/A   Clear
4:53 AM 80.1 °F 81.5 °F 63.0 °F 56% 29.76 in 10.0 mi NE 9.2 mph - N/A   Clear
5:53 AM 79.0 °F - 63.0 °F 58% 29.77 in 10.0 mi East 6.9 mph - N/A   Clear
6:53 AM 75.9 °F - 63.0 °F 64% 29.78 in 10.0 mi SE 5.8 mph - N/A   Clear
7:53 AM 79.0 °F - 64.0 °F 60% 29.80 in 10.0 mi ESE 5.8 mph - N/A   Mostly Cloudy
8:53 AM 82.0 °F 83.4 °F 64.0 °F 54% 29.82 in 10.0 mi East 5.8 mph - N/A   Clear
9:53 AM 87.1 °F 88.3 °F 64.0 °F 46% 29.80 in 10.0 mi SE 10.4 mph - N/A   Clear
10:41 AM 91.4 °F 92.1 °F 62.6 °F 38% 29.86 in 10.0 mi SSE 6.9 mph - N/A Thunderstorm Partly Cloudy
10:53 AM 91.0 °F 91.5 °F 62.1 °F 38% 29.81 in 10.0 mi East 4.6 mph - N/A   Scattered Clouds
11:05 AM 91.4 °F 92.1 °F 62.6 °F 38% 29.88 in 10.0 mi NNE 11.5 mph - N/A Thunderstorm Mostly Cloudy
11:53 AM 90.0 °F 91.7 °F 64.9 °F 43% 29.81 in 10.0 mi NE 10.4 mph - N/A Thunderstorm Thunderstorm
12:53 PM 89.1 °F 91.0 °F 64.9 °F 45% 29.78 in 10.0 mi South 10.4 mph - 0.00 in Thunderstorm Clear
1:48 PM 98.6 °F 100.0 °F 62.6 °F 30% 29.83 in 10.0 mi SSW 16.1 mph - N/A   Clear
1:53 PM 98.1 °F 99.6 °F 63.0 °F 31% 29.76 in 10.0 mi SSW 13.8 mph - N/A   Clear
2:53 PM 100.9 °F 102.1 °F 61.0 °F 27% 29.75 in 10.0 mi SSW 12.7 mph - N/A   Clear
3:53 PM 102.0 °F 102.2 °F 59.0 °F 24% 29.73 in 10.0 mi Calm Calm - N/A   Clear
5:53 PM 102.0 °F 102.7 °F 60.1 °F 25% 29.70 in 10.0 mi NNE 9.2 mph - N/A   Clear
6:53 PM 99.0 °F 99.5 °F 60.1 °F 28% 29.72 in 10.0 mi ENE 6.9 mph - N/A   Clear
7:53 PM 95.0 °F 94.8 °F 60.1 °F 31% 29.71 in 10.0 mi ENE 8.1 mph - N/A   Clear
8:53 PM 91.9 °F 91.8 °F 61.0 °F 35% 29.74 in 10.0 mi ESE 12.7 mph 24.2 mph N/A   Mostly Cloudy
9:53 PM 89.1 °F 89.3 °F 62.1 °F 40% 29.77 in 10.0 mi East 4.6 mph - N/A   Clear
10:53 PM 78.1 °F - 68.0 °F 71% 29.86 in 10.0 mi NNW 25.3 mph 38.0 mph N/A   Overcast
11:15 PM 75.2 °F - 69.8 °F 83% 29.93 in 10.0 mi NNW 21.9 mph 32.2 mph 0.00 in Rain , Thunderstorm Light Rain
11:53 PM 73.9 °F - 69.1 °F 85% 29.90 in 10.0 mi NNW 19.6 mph 25.3 mph 0.00 in Rain Light Rain